YAOGAN 4

Satellite information

Favourite Embed

Satellite Type and Status

PAYLOADIN ORBIT

Key statistics

Satellite YAOGAN 4 at a glance.

Uptime

6060

Days in orbit

Revolutions

≈ 14.8

Per day

Orbit

SSO

Sun Synchronous Orbit

Inclination

97.9

Latest

Satellite identification and parameters

Extended collection of information and parameters for YAOGAN 4.

Object identification

Identified? True

Debris? False

Object name: YAOGAN 4

International designator: 2008-061A

Object number (NORAD): 33446

Object ID (CCSDS): 33446

Country: PEOPLES REPUBLIC OF CHINA (PRC)

Current information (Y/N): Y

RCS size: LARGE

Orbital parameters

Period: 97.16 minutes

Inclination: 97.9045 deg

SMA: 7000.865 km

Apoapsis: 633.784 km

Periapsis: 611.676 km

RAAN: 116.7597 deg

Eccentricy: 0.001579

Argument of periapsis: 122.1135 deg

Mean anomaly: 238.1613 deg

Mean motion: 14.82092169 rev/day

Mean motion (dot): 0.00000824 rev/day2

B* drag term: 0.00011014 1/REarth

Two-line elements (TLE)

Creation date: July 4, 2025, 3:20 a.m.

Reference frame: TEME

Reference center: EARTH

Epoch: July 3, 2025, 7:14 p.m. UTC

TLE line 0: 0 YAOGAN 4

TLE line 1: 1 33446U 08061A 25184.80138922 .00000824 00000-0 11014-3 0 9992

TLE line 2: 2 33446 97.9045 116.7597 0015790 122.1135 238.1613 14.82092169894040

Live tracking on map

Real-time ground track for satellite YAOGAN 4.

In-orbit conjunctions

There are no conjunctions computed for YAOGAN 4, at the moment. Check back to stay up to date, as we update our databases every day.

Go to all conjunctions

Associated space launch

Chinese Earth observation satellite, likely also used for military reconnaissance

YAOGAN 4 was lifted into orbit during the mission ‘Long March 2D | Yaogan Weixing 4’, on board a Long March 2D space rocket.

The launch took place on Dec. 1, 2008, 4:42 a.m. from Launch Area 4 (SLS-2 / 603).

For more information about the launch, click the button.

Launch to space Long March 2D | Yaogan Weixing 4
Long March 2D | Yaogan Weixing 4

Agency: N/A

Status: Launch Successful

Launch date: Dec. 1, 2008, 4:42 a.m. UTC

Rocket: Long March 2D

Launch pad: Launch Area 4 (SLS-2 / 603)

Location: Jiuquan Satellite Launch Center, People's Republic of China

...

Latest news about this satellite

There are no fresh news available about this satellite. Check back as we update our databases every day.


Newsletter sign-up

Weekly statistics, charts and insights to help you stay on top of the space industry.